Location: Unspecified
(47.1121°N, 116.3927°W)
Time: 07:42:04
(UTC-07:00)

ISS - Pass Details

Date: 22 May 2019
Orbit: 408 x 418 km, 51.6° (Epoch: 19 June)

Event Time Altitude Azimuth Distance (km) Brightness Sun altitude
Rises 01:20:43 0° 295° (WNW) 2,367 0.3 -22.0°
Reaches altitude 10° 01:22:49 10° 296° (WNW) 1,502 -0.8 -21.9°
Enters shadow 01:24:36 29° 299° (WNW) 805 -2.2 -21.9°
